EW9449 Weather Reports


Display with metric or nautical units.
time (UTC)temp
F
wind
direction
speed
MPH
gust
MPH
rain 1hr
in
rain 24hr
in
rain mn
in
humidity
%
barometer
mb
20260505051518 53 0.0 0.0 0.00 0.05 0.05 58 1007.4
20260505050519 54 0.0 0.0 0.00 0.05 0.05 57 1007.4
20260505041518 55 0.0 0.0 0.00 0.05 0.05 54 1006.4
20260505040519 56 0.0 0.0 0.00 0.05 0.05 53 1006.3
20260505035519 56 0.0 2.0 0.00 0.05 0.05 52 1006.1
20260505034518 56 68 1.0 3.0 0.00 0.05 0.05 52 1005.6
20260505033539 57 0.0 0.0 0.00 0.05 0.05 51 1005.3
20260505032518 58 0.0 0.0 0.00 0.05 0.05 50 1005.5
20260505031538 59 0.0 0.0 0.00 0.05 0.05 48 1005.4
20260505030518 60 0.0 0.0 0.00 0.05 0.05 46 1005.2
20260505025518 61 68 2.0 3.0 0.00 0.05 0.05 45 1005.3
20260505024519 63 0.0 0.0 0.00 0.05 0.05 44 1005.2
20260505023539 64 0.0 0.0 0.00 0.05 0.05 42 1005.1
20260505022519 64 0.0 0.0 0.00 0.05 0.05 41 1005.1
20260505021519 65 0.0 0.0 0.00 0.05 0.05 40 1004.8
20260505020519 65 0.0 0.0 0.00 0.05 0.05 39 1004.6
20260505015518 66 0.0 0.0 0.00 0.05 0.05 38 1004.6
20260505014518 66 0.0 2.0 0.00 0.05 0.05 39 1004.6
20260505013518 67 0.0 0.0 0.00 0.05 0.05 40 1004.7
20260505012518 67 0.0 0.0 0.00 0.05 0.05 38 1004.8
20260505011518 67 0.0 0.0 0.00 0.05 0.05 39 1004.8
20260505010519 66 0.0 0.0 0.00 0.05 0.05 39 1004.5
20260505005518 66 68 2.0 5.0 0.00 0.05 0.05 34 1004.3
20260505004518 66 68 3.0 8.0 0.00 0.05 0.05 34 1004.3
20260505003519 66 90 3.0 6.0 0.00 0.05 0.05 35 1004.4
20260505002518 67 45 6.0 13.0 0.00 0.05 0.05 34 1004.9
20260505001518 68 68 5.0 11.0 0.00 0.05 0.05 33 1004.9
20260505000518 69 68 7.0 15.0 0.00 0.05 0.05 32 1005.4
20260504235518 69 68 4.0 8.0 0.00 0.05 0.05 35 1005.5
20260504234539 67 23 7.0 12.0 0.00 0.05 0.05 38 1005.7
20260504233518 66 68 6.0 13.0 0.00 0.05 0.05 41 1005.5
20260504232519 64 23 6.0 12.0 0.02 0.05 0.05 44 1005.6
20260504231519 63 23 8.0 18.0 0.03 0.05 0.05 47 1005.2
20260504230518 61 68 6.0 14.0 0.05 0.05 0.05 52 1004.9
20260504225518 59 68 3.0 8.0 0.05 0.05 0.05 61 1004.8
20260504224518 59 68 2.0 4.0 0.05 0.05 0.05 66 1005.0
20260504223518 59 68 2.0 7.0 0.05 0.05 0.05 65 1005.0
20260504222518 59 0.0 4.0 0.03 0.03 0.03 60 1005.1
20260504221559 60 0.0 4.0 0.02 0.02 0.02 57 1005.8
20260504220518 62 225 2.0 7.0 0.00 0.00 0.00 51 1006.8
20260504215518 67 68 1.0 3.0 0.00 0.00 0.00 38 1006.5
20260504214539 68 90 2.0 5.0 0.00 0.00 0.00 27 1005.9
20260504213518 68 270 1.0 4.0 0.00 0.00 0.00 28 1005.5
20260504212518 70 0.0 2.0 0.00 0.00 0.00 28 1005.8
20260504211518 71 293 1.0 4.0 0.00 0.00 0.00 27 1005.9
20260504210517 71 0.0 0.0 0.00 0.00 0.00 28 1006.4
20260504205519 72 0.0 3.0 0.00 0.00 0.00 26 1006.4
20260504204517 73 270 2.0 6.0 0.00 0.00 0.00 25 1006.5
20260504203559 73 0.0 2.0 0.00 0.00 0.00 25 1006.6
20260504202517 73 270 1.0 4.0 0.00 0.00 0.00 24 1006.6
20260504201518 74 270 1.0 4.0 0.00 0.00 0.00 23 1006.7
20260504200520 74 270 2.0 6.0 0.00 0.00 0.00 23 1006.7
20260504195518 74 270 1.0 4.0 0.00 0.00 0.00 23 1007.2
20260504194518 75 0.0 2.0 0.00 0.00 0.00 23 1007.1
20260504193518 76 270 1.0 4.0 0.00 0.00 0.00 21 1007.2
20260504192517 76 270 2.0 6.0 0.00 0.00 0.00 23 1007.5
20260504191518 76 270 2.0 6.0 0.00 0.00 0.00 23 1007.5
20260504190518 79 293 2.0 8.0 0.00 0.00 0.00 21 1008.2
20260504185518 78 0.0 3.0 0.00 0.00 0.00 22 1008.4
20260504184520 77 0.0 3.0 0.00 0.00 0.00 21 1008.1
20260504183519 76 225 3.0 7.0 0.00 0.00 0.00 23 1008.2
20260504182519 75 225 2.0 3.0 0.00 0.00 0.00 25 1008.1
20260504181519 74 270 1.0 8.0 0.00 0.00 0.00 24 1008.1
20260504180521 74 270 3.0 7.0 0.00 0.00 0.00 24 1008.3
20260504175519 74 270 3.0 8.0 0.00 0.00 0.00 25 1008.4
20260504174520 73 158 1.0 5.0 0.00 0.00 0.00 27 1008.4
20260504173519 72 90 2.0 6.0 0.00 0.00 0.00 27 1008.6
20260504172520 71 225 1.0 4.0 0.00 0.00 0.00 29 1008.7
20260504171519 70 0.0 0.0 0.00 0.00 0.00 32 1008.5
20260504170519 70 225 1.0 3.0 0.00 0.00 0.00 31 1008.6
20260504150519 61 0.0 2.0 0.00 0.00 0.00 37 1008.5
20260504140519 54 0.0 0.0 0.00 0.00 0.00 52 1008.4
20260504130519 51 68 1.0 3.0 0.00 0.00 0.00 49 1008.6
20260504110518 54 0.0 2.0 0.00 0.00 0.00 37 1009.9
20260504100518 55 0.0 0.0 0.00 0.00 0.00 37 1009.8
20260504081518 53 0.0 3.0 0.00 0.00 0.00 37 1009.9
20260504080518 54 0.0 0.0 0.00 0.00 0.00 40 1009.8